Hourly Weather Homun

Today, 13 April, Tuesday

Time Temperature Precipitation Wind Pressure Humidity
00:00 +28°C° 0 mm 3 mps 756 mmHg 80%
01:00 +27°C° 0 mm 2 mps 756 mmHg 85%
02:00 +26°C° 0 mm 2 mps 756 mmHg 90%
03:00 +25°C° 0 mm 2 mps 756 mmHg 94%
04:00 +25°C° 0 mm 2 mps 756 mmHg 95%
05:00 +25°C° 0 mm 2 mps 756 mmHg 96%
06:00 +25°C° 0 mm 3 mps 757 mmHg 96%
07:00 +28°C° 0 mm 3 mps 757 mmHg 81%
08:00 +32°C° 0 mm 4 mps 757 mmHg 66%
09:00 +34°C° 0 mm 4 mps 757 mmHg 52%
10:00 +37°C° 0 mm 4 mps 757 mmHg 43%
11:00 +40°C° 0 mm 4 mps 756 mmHg 34%
12:00 +43°C° 0 mm 4 mps 756 mmHg 24%
13:00 +44°C° 0 mm 4 mps 755 mmHg 22%
14:00 +44°C° 0 mm 4 mps 754 mmHg 20%
15:00 +45°C° 0 mm 4 mps 753 mmHg 18%
16:00 +43°C° 0 mm 4 mps 754 mmHg 23%
17:00 +41°C° 0 mm 5 mps 754 mmHg 28%
18:00 +39°C° 0 mm 5 mps 754 mmHg 33%
19:00 +35°C° 0 mm 5 mps 755 mmHg 42%
20:00 +33°C° 0 mm 5 mps 756 mmHg 50%
21:00 +30°C° 0 mm 4 mps 758 mmHg 59%
22:00 +29°C° 0 mm 4 mps 758 mmHg 65%
23:00 +28°C° 0 mm 4 mps 757 mmHg 71%

Tomorrow, 14 April, Wednesday

Time Temperature Precipitation Wind Pressure Humidity
00:00 +27°C° 0 mm 3 mps 757 mmHg 77%
01:00 +26°C° 0 mm 3 mps 757 mmHg 81%
02:00 +25°C° 0 mm 2 mps 757 mmHg 85%
03:00 +24°C° 0 mm 2 mps 757 mmHg 90%
04:00 +24°C° 0 mm 2 mps 758 mmHg 92%
05:00 +24°C° 0 mm 2 mps 758 mmHg 95%
06:00 +23°C° 0 mm 2 mps 759 mmHg 97%
07:00 +27°C° 0 mm 3 mps 759 mmHg 81%
08:00 +30°C° 0 mm 3 mps 759 mmHg 65%
09:00 +34°C° 0 mm 4 mps 759 mmHg 49%
10:00 +36°C° 0 mm 4 mps 759 mmHg 40%
11:00 +38°C° 0 mm 4 mps 758 mmHg 32%
12:00 +42°C° 0 mm 4 mps 757 mmHg 24%
13:00 +42°C° 0 mm 4 mps 756 mmHg 22%
14:00 +43°C° 0 mm 4 mps 755 mmHg 20%
15:00 +44°C° 0 mm 4 mps 754 mmHg 18%
16:00 +42°C° 0 mm 4 mps 754 mmHg 21%
17:00 +40°C° 0 mm 4 mps 755 mmHg 24%
18:00 +38°C° 0 mm 4 mps 755 mmHg 27%
19:00 +35°C° 0 mm 4 mps 756 mmHg 36%
20:00 +33°C° 0 mm 4 mps 756 mmHg 45%
21:00 +30°C° 0 mm 5 mps 757 mmHg 54%
22:00 +29°C° 0 mm 4 mps 757 mmHg 61%
23:00 +28°C° 0 mm 4 mps 757 mmHg 69%

Day after tomorrow, 15 April, Thursday

Time Temperature Precipitation Wind Pressure Humidity
00:00 +27°C° 0 mm 3 mps 757 mmHg 77%
01:00 +26°C° 0 mm 3 mps 757 mmHg 82%
02:00 +26°C° 0 mm 3 mps 757 mmHg 86%
03:00 +25°C° 0 mm 3 mps 757 mmHg 91%
04:00 +25°C° 0 mm 2 mps 757 mmHg 92%
05:00 +25°C° 0 mm 2 mps 757 mmHg 92%
06:00 +24°C° 0 mm 2 mps 757 mmHg 93%
07:00 +27°C° 0 mm 3 mps 757 mmHg 77%
08:00 +30°C° 0 mm 3 mps 757 mmHg 62%
09:00 +33°C° 0 mm 3 mps 757 mmHg 47%
10:00 +36°C° 0 mm 3 mps 757 mmHg 38%
11:00 +38°C° 0 mm 3 mps 756 mmHg 28%
12:00 +42°C° 0 mm 3 mps 755 mmHg 19%
13:00 +43°C° 0 mm 3 mps 754 mmHg 17%
14:00 +43°C° 0 mm 3 mps 753 mmHg 15%
15:00 +43°C° 0 mm 2 mps 752 mmHg 14%
16:00 +41°C° 0 mm 2 mps 753 mmHg 18%
17:00 +38°C° 0 mm 2 mps 753 mmHg 23%
18:00 +36°C° 0 mm 2 mps 753 mmHg 28%
19:00 +32°C° 0 mm 2 mps 754 mmHg 37%
20:00 +30°C° 0 mm 2 mps 754 mmHg 47%
21:00 +28°C° 0 mm 2 mps 755 mmHg 57%
22:00 +28°C° 0 mm 3 mps 755 mmHg 62%
23:00 +27°C° 0 mm 3 mps 755 mmHg 68%

16 April, Friday

Time Temperature Precipitation Wind Pressure Humidity
00:00 +26°C° 0 mm 3 mps 755 mmHg 74%
01:00 +26°C° 0 mm 3 mps 755 mmHg 78%
02:00 +25°C° 0 mm 3 mps 755 mmHg 82%
03:00 +24°C° 0 mm 3 mps 754 mmHg 86%
04:00 +24°C° 0 mm 3 mps 755 mmHg 88%
05:00 +24°C° 0 mm 3 mps 755 mmHg 90%
06:00 +24°C° 0 mm 3 mps 755 mmHg 92%
07:00 +27°C° 0 mm 4 mps 755 mmHg 77%
08:00 +30°C° 0 mm 4 mps 755 mmHg 62%
09:00 +33°C° 0 mm 5 mps 755 mmHg 47%
10:00 +36°C° 0 mm 5 mps 754 mmHg 38%
11:00 +39°C° 0 mm 5 mps 753 mmHg 30%
12:00 +42°C° 0 mm 4 mps 753 mmHg 22%
13:00 +43°C° 0 mm 4 mps 752 mmHg 20%
14:00 +43°C° 0 mm 4 mps 751 mmHg 18%
15:00 +44°C° 0 mm 3 mps 750 mmHg 16%
16:00 +42°C° 0 mm 3 mps 750 mmHg 19%
17:00 +40°C° 0 mm 3 mps 751 mmHg 22%
18:00 +38°C° 0 mm 3 mps 751 mmHg 25%
19:00 +36°C° 0 mm 3 mps 751 mmHg 35%
20:00 +34°C° 0 mm 3 mps 752 mmHg 46%
21:00 +30°C° 0 mm 3 mps 753 mmHg 56%
22:00 +29°C° 0 mm 3 mps 753 mmHg 61%
23:00 +28°C° 0 mm 3 mps 753 mmHg 65%

17 April, Saturday

Time Temperature Precipitation Wind Pressure Humidity
00:00 +27°C° 0 mm 3 mps 754 mmHg 69%
01:00 +27°C° 0 mm 3 mps 753 mmHg 76%
02:00 +26°C° 0 mm 3 mps 753 mmHg 83%
03:00 +25°C° 0 mm 3 mps 753 mmHg 90%
04:00 +26°C° 0 mm 4 mps 753 mmHg 87%
05:00 +26°C° 0 mm 4 mps 753 mmHg 84%
06:00 +27°C° 0 mm 4 mps 754 mmHg 82%
07:00 +29°C° 0 mm 4 mps 754 mmHg 71%
08:00 +33°C° 0 mm 4 mps 754 mmHg 61%
09:00 +35°C° 0 mm 5 mps 754 mmHg 50%
10:00 +37°C° 0 mm 4 mps 754 mmHg 44%
11:00 +40°C° 0 mm 4 mps 753 mmHg 37%
12:00 +43°C° 0 mm 3 mps 753 mmHg 31%
13:00 +44°C° 0 mm 3 mps 752 mmHg 27%
14:00 +45°C° 0 mm 2 mps 751 mmHg 24%
15:00 +45°C° 0 mm 2 mps 751 mmHg 21%
16:00 +44°C° 0 mm 3 mps 751 mmHg 25%
17:00 +42°C° 0 mm 3 mps 751 mmHg 29%
18:00 +40°C° 0 mm 4 mps 751 mmHg 33%
19:00 +37°C° 0 mm 4 mps 752 mmHg 43%
20:00 +34°C° 0 mm 3 mps 753 mmHg 53%
21:00 +31°C° 0 mm 3 mps 755 mmHg 63%
22:00 +30°C° 0 mm 3 mps 755 mmHg 68%
23:00 +29°C° 0 mm 3 mps 755 mmHg 73%

18 April, Sunday

Time Temperature Precipitation Wind Pressure Humidity
00:00 +28°C° 0 mm 3 mps 755 mmHg 78%
01:00 +28°C° 0 mm 3 mps 755 mmHg 78%
02:00 +28°C° 0 mm 3 mps 755 mmHg 78%
03:00 +28°C° 0 mm 3 mps 755 mmHg 78%
04:00 +28°C° 0 mm 3 mps 755 mmHg 77%
05:00 +29°C° 0 mm 3 mps 756 mmHg 75%
06:00 +29°C° 0 mm 2 mps 756 mmHg 74%
07:00 +31°C° 0 mm 3 mps 756 mmHg 65%
08:00 +34°C° 0 mm 3 mps 756 mmHg 57%
09:00 +36°C° 0 mm 4 mps 756 mmHg 49%
10:00 +38°C° 0 mm 4 mps 756 mmHg 42%
11:00 +41°C° 0 mm 4 mps 755 mmHg 35%
12:00 +43°C° 0 mm 3 mps 754 mmHg 29%
13:00 +42°C° 0.1 mm 3 mps 754 mmHg 32%
14:00 +40°C° 0.1 mm 3 mps 753 mmHg 36%
15:00 +39°C° 0.1 mm 3 mps 753 mmHg 39%
16:00 +35°C° 0.5 mm 3 mps 753 mmHg 52%
17:00 +31°C° 0.5 mm 2 mps 754 mmHg 64%
18:00 +28°C° 0.5 mm 2 mps 754 mmHg 77%
19:00 +27°C° 2 mm 2 mps 755 mmHg 82%
20:00 +27°C° 2 mm 2 mps 756 mmHg 86%
21:00 +26°C° 2 mm 2 mps 757 mmHg 91%
22:00 +25°C° 1 mm 2 mps 757 mmHg 89%
23:00 +25°C° 1 mm 2 mps 756 mmHg 88%
Show more